[[{"header":{"parameterUnit":"m.s-1","parameterCategory":2,"la1":30.2991,"la2":30.254,"lo1":-89.0895,"lo2":-89.0444,"dy":0.0017,"dx":0.0017,"nx":28,"ny":28,"refTime":"2023-09-02T03:00:00:Z","depth":"0","parameterNumber":2,"parameterNumberName":"U-component_of_CURRENTS"},"data":[0,0,0,0,0,0,0,0,0,0,0,0,0,0,0,0,0,0,0,0,0,0,0,0,0,0,0,0,0,0,0,0,0,0,0,0,0,0,0,0,0,0,0,0,0,0,0,0,0,0,0,0,0,0,0,0,0,0,-0.0073,-0.0073,0,-0.0061,-0.0061,-0.0061,-0.0049,-0.0049,-0.0049,-0.0049,-0.0022,-0.0022,-0.0021,0,0,0,0,0,0,0,0,0,0,0,0,0,-0.0071,-0.0071,-0.0073,-0.0073,-0.0073,-0.0061,-0.0061,-0.0061,-0.0049,-0.0049,-0.0049,-0.0049,-0.0022,-0.0022,-0.0021,0,0,0,0,0,0,0,0,0,0,0,0,0,-0.0066,-0.0071,-0.0074,-0.0067,-0.0066,-0.0061,-0.0061,-0.0061,-0.0049,-0.0049,-0.0049,-0.0049,-0.0023,-0.0022,-0.0021,-0.0018,0,0,-0.0018,-0.0018,0,0,0,0,0,0,0,0,-0.0066,-0.0066,-0.0068,-0.0067,-0.0066,-0.0057,-0.0051,-0.0046,-0.0049,-0.0054,-0.0049,-0.0049,-0.0033,-0.0031,-0.0028,-0.0016,-0.0015,-0.0018,-0.0017,-0.0017,-0.0017,0,0,0,0,0,0,0,-0.0067,-0.0067,-0.0068,-0.0068,-0.0067,-0.0059,-0.0058,-0.005,-0.0044,-0.0054,-0.0053,-0.0053,-0.0033,-0.0029,-0.0028,-0.0015,-0.0018,-0.0017,-0.0017,-0.0016,0.0003,0.0003,0,0,0,0,0,0,-0.0071,-0.0067,-0.0068,-0.0068,-0.0067,-0.0059,-0.0058,-0.006,-0.0044,-0.0042,-0.0053,-0.0053,-0.0031,-0.0029,-0.0027,-0.0024,-0.0017,-0.0016,-0.0016,0.0003,0.0003,0.0003,0,0,0,0,0,0,-0.0071,-0.0071,-0.0069,-0.0067,-0.0067,-0.0059,-0.0061,-0.0059,-0.0055,-0.0044,-0.0041,-0.0051,-0.0031,-0.0028,-0.002,-0.0023,-0.0016,-0.0015,0.0003,0.0003,0.0003,-0.0017,0,0,0,0,0,0,-0.0071,-0.0071,-0.0072,-0.0068,-0.0067,-0.0069,-0.0061,-0.0059,-0.0056,-0.0055,-0.0041,-0.0039,-0.0031,-0.0022,-0.0019,-0.0021,-0.0014,0.0003,0.0003,0.0003,-0.0016,-0.0017,-0.0019,0,0,0,0,0,-0.0071,-0.0074,-0.0072,-0.0072,-0.0068,-0.0069,-0.0068,-0.0061,-0.0056,-0.0056,-0.0047,-0.0039,-0.0021,-0.0021,-0.0018,-0.002,0.0003,0.0003,0.0003,-0.0015,-0.0017,-0.0019,0,0,0,0,0,0,-0.0072,-0.0073,-0.007,-0.0073,-0.0072,-0.0067,-0.0065,-0.0062,-0.0054,-0.0051,-0.004,-0.0037,-0.003,-0.0022,-0.0023,-0.0014,-0.0007,-0.0007,-0.0022,-0.0024,-0.0025,-0.0023,-0.0013,0,0,0,0,0,-0.0073,-0.0075,-0.0075,-0.0076,-0.0076,-0.007,-0.0068,-0.0065,-0.0059,-0.0056,-0.0047,-0.0037,-0.0029,-0.0024,-0.0016,-0.0011,-0.0001,-0.001,-0.0011,-0.0013,-0.0009,-0.0002,-0.0002,0.0003,0.0003,0.0003,0,0,-0.0074,-0.0074,-0.0075,-0.0076,-0.0073,-0.0075,-0.0068,-0.0067,-0.0068,-0.0054,-0.0049,-0.004,-0.0029,-0.0024,-0.0021,-0.0017,-0.0009,-0.0013,-0.0014,-0.001,-0.0002,-0.0002,-0.0003,0.0002,0.0002,0.0002,0,0,-0.0076,-0.0076,-0.0078,-0.0079,-0.0078,-0.0076,-0.0077,-0.0074,-0.007,-0.0067,-0.0057,-0.0049,-0.0038,-0.0031,-0.0026,-0.0028,-0.0016,-0.0026,-0.0032,-0.0025,-0.0025,-0.0025,-0.0015,-0.0014,-0.0027,-0.0027,-0.0027,0,-0.0076,-0.008,-0.0079,-0.0082,-0.0083,-0.0078,-0.0082,-0.0079,-0.0074,-0.0072,-0.0067,-0.0052,-0.0041,-0.0036,-0.0035,-0.0031,-0.0024,-0.0028,-0.0027,-0.0027,-0.0027,-0.0016,-0.0015,-0.0028,-0.0028,-0.0028,-0.0028,0,-0.0081,-0.0084,-0.0085,-0.0088,-0.009,-0.0092,-0.0092,-0.0091,-0.0087,-0.0084,-0.0078,-0.0065,-0.0055,-0.0053,-0.0043,-0.0038,-0.0032,-0.003,-0.0024,-0.0028,-0.0017,-0.0015,-0.003,-0.0029,-0.0029,-0.0029,0,0,-0.0079,-0.0087,-0.0087,-0.0091,-0.0094,-0.0097,-0.0099,-0.0101,-0.0102,-0.0095,-0.0094,-0.0081,-0.0072,-0.0065,-0.0055,-0.0047,-0.0038,-0.0037,-0.0037,-0.0029,-0.002,0.0017,0.0022,-0.0038,-0.0038,-0.0038,-0.0013,0,-0.0081,-0.0089,-0.0093,-0.0101,-0.0106,-0.0107,-0.0112,-0.0113,-0.0109,-0.0107,-0.0096,-0.0089,-0.0078,-0.0072,-0.0063,-0.0042,-0.0034,-0.0045,-0.0015,-0.0014,0.0018,0.0026,0.0068,0.0097,-0.0011,-0.0011,-0.0011,0,-0.0081,-0.0088,-0.0096,-0.011,-0.0112,-0.0116,-0.0122,-0.0125,-0.0123,-0.012,-0.0112,-0.0102,-0.0086,-0.0078,-0.0048,-0.0055,-0.0037,-0.0024,-0.0023,0.0022,0.0027,0.0084,0.0104,0.0124,-0.0008,-0.0008,-0.0008,0,-0.0075,-0.0089,-0.0095,-0.0099,-0.0113,-0.0117,-0.0123,-0.0126,-0.0129,-0.0124,-0.0121,-0.0107,-0.009,-0.0073,-0.0036,-0.0043,-0.0002,-0.001,0.0038,0.004,0.0088,0.0095,0.0131,0.0008,0.0008,0.0008,0.0008,0,-0.0074,-0.0079,-0.0092,-0.0096,-0.0106,-0.0116,-0.0123,-0.0127,-0.013,-0.0126,-0.0122,-0.0109,-0.0086,-0.0059,-0.0037,0.0016,-0.0001,0.0044,0.0052,0.0083,0.0089,0.0118,0.0125,0.0009,0.0008,0.0008,0.0008,0,-0.0064,-0.0071,-0.0081,-0.0097,-0.0102,-0.0107,-0.0122,-0.0126,-0.013,-0.0122,-0.0119,-0.0103,-0.0057,-0.0032,0.0008,0.0027,0.0072,0.0081,0.0121,0.0134,0.0196,0.0201,0.0198,0.0173,0.0136,0.0137,0.0138,0,-0.006,-0.0063,-0.0078,-0.0083,-0.0089,-0.01,-0.0107,-0.012,-0.012,-0.0112,-0.0102,-0.0064,-0.0015,0.0055,0.0099,0.0149,0.0125,0.0198,0.0194,0.0216,0.0226,0.0168,0.0142,0.0246,0.0248,0.0249,0.0251,0,-0.0054,-0.0056,-0.0065,-0.0072,-0.0079,-0.0085,-0.0092,-0.0093,-0.0098,-0.0081,-0.004,-0.0001,0.0071,0.0171,0.0229,0.024,0.0202,0.023,0.0242,0.0313,0.0264,0.024,0.0211,0.0263,0.0262,0.0261,0.026,0.026,-0.0048,-0.005,-0.0055,-0.0059,-0.0064,-0.0055,-0.0044,-0.0042,-0.002,0.0035,0.0039,0.0148,0.027,0.0373,0.034,0.0372,0.0306,0.0386,0.0388,0.0325,0.0308,0.0313,0.038,0.038,0.0379,0.0379,0.0378,0,-0.0036,-0.0036,-0.0042,-0.0038,-0.0026,-0.0031,-0.0021,0.0008,0.006,0.0141,0.0206,0.0418,0.0517,0.0557,0.0635,0.0582,0.0457,0.0527,0.0462,0.0424,0.0438,0.0452,0.0551,0.0551,0.0551,0.0551,0.0551,0.0551,-0.0029,-0.0023,-0.0023,0.0007,0.0015,0.0053,0.0074,0.012,0.0191,0.0358,0.051,0.0608,0.0768,0.0876,0.085,0.0758,0.0633,0.0582,0.0518,0.0562,0.0548,0.0534,0.0548,0.0667,0.0667,0.0475,0.0474,0.0473]},{"header":{"parameterUnit":"m.s-1","parameterCategory":2,"la1":30.2991,"la2":30.254,"lo1":-89.0895,"lo2":-89.0444,"dy":0.0017,"dx":0.0017,"nx":28,"ny":28,"refTime":"2023-09-02T03:00:00:Z","depth":"0","parameterNumber":3,"parameterNumberName":"V-component_of_CURRENTS"},"data":[0,0,0,0,0,0,0,0,0,0,0,0,0,0,0,0,0,0,0,0,0,0,0,0,0,0,0,0,0,0,0,0,0,0,0,0,0,0,0,0,0,0,0,0,0,0,0,0,0,0,0,0,0,0,0,0,0,0,0.0028,0.0028,0,0.0018,0.0018,0.0018,0.0008,0.0007,0.0007,0.0007,-0.0005,-0.0005,-0.0005,0,0,0,0,0,0,0,0,0,0,0,0,0,0.0041,0.0041,0.0028,0.0028,0.0028,0.0018,0.0018,0.0018,0.0008,0.0007,0.0007,0.0007,-0.0005,-0.0005,-0.0005,0,0,0,0,0,0,0,0,0,0,0,0,0,0.0033,0.0041,0.0028,0.0022,0.0022,0.0018,0.0018,0.0018,0.0008,0.0007,0.0007,0.0007,-0.0005,-0.0005,-0.0005,-0.0006,0,0,-0.0007,-0.0007,0,0,0,0,0,0,0,0,0.0033,0.0032,0.0023,0.0023,0.0022,0.0015,0.0018,0.001,0.0008,0.0012,0.0007,0.0007,0.0002,0.0001,-0.0002,-0.0006,-0.0007,-0.0007,-0.0007,-0.0007,-0.0007,0,0,0,0,0,0,0,0.0034,0.0033,0.0024,0.0023,0.0023,0.0021,0.002,0.0016,0.0007,0.0012,0.0011,0.0011,0.0002,-0.0001,-0.0002,-0.0007,-0.0007,-0.0007,-0.0007,-0.0007,-0.0011,-0.0011,0,0,0,0,0,0,0.0037,0.0033,0.0024,0.0023,0.0028,0.0021,0.0019,0.0017,0.0007,0.0006,0.0011,0.0011,-0.0001,-0.0002,-0.0002,-0.0003,-0.0007,-0.0007,-0.0008,-0.0011,-0.0011,-0.001,0,0,0,0,0,0,0.0037,0.0036,0.0024,0.0029,0.0027,0.0021,0.0018,0.0016,0.0013,0.0007,0.0006,0.001,-0.0001,-0.0002,-0.0004,-0.0004,-0.0008,-0.0008,-0.0011,-0.0011,-0.0011,-0.0004,0,0,0,0,0,0,0.0037,0.0036,0.0034,0.0029,0.0027,0.0022,0.0018,0.0016,0.0014,0.0013,0.0005,0.0004,-0.0001,-0.0003,-0.0004,-0.0004,-0.0008,-0.0011,-0.0011,-0.0011,-0.0005,-0.0004,-0.0003,0,0,0,0,0,0.0038,0.0035,0.0033,0.0032,0.0025,0.0022,0.0021,0.0016,0.0014,0.0012,0.0009,0.0004,-0.0002,-0.0003,-0.0005,-0.0005,-0.0011,-0.0011,-0.0011,-0.0005,-0.0004,-0.0003,0,0,0,0,0,0,0.0038,0.0033,0.0032,0.0027,0.0025,0.0021,0.0018,0.0016,0.0012,0.0011,0.0006,0.0004,0.0002,-0.0001,-0.0002,-0.0004,-0.0007,-0.0007,-0.0003,-0.0002,-0.0001,-0.0004,-0.0009,0,0,0,0,0,0.0037,0.0034,0.0031,0.0027,0.0027,0.0023,0.0021,0.0019,0.0015,0.0013,0.0009,0.0006,0.0003,0.0001,-0.0003,-0.0004,-0.0005,-0.0004,-0.0003,-0.0003,-0.0005,-0.0004,-0.0003,-0.0009,-0.0009,-0.0009,0,0,0.0036,0.0033,0.0031,0.0027,0.0025,0.0022,0.0021,0.0019,0.0017,0.0013,0.0009,0.0007,0.0003,0.0001,0.0,-0.0001,-0.0001,-0.0002,-0.0002,-0.0005,-0.0003,-0.0003,-0.0002,-0.0009,-0.0009,-0.0009,0,0,0.0031,0.003,0.0025,0.0025,0.0022,0.0021,0.0022,0.0019,0.0017,0.0015,0.0013,0.0012,0.0007,0.0005,0.0003,0.0007,0.0003,0.0006,0.0007,0.0009,0.0009,0.001,0.0011,0.0011,0.0007,0.0007,0.0007,0,0.003,0.0023,0.0024,0.002,0.0019,0.0021,0.0018,0.0018,0.0015,0.0016,0.0014,0.0011,0.0008,0.0008,0.0008,0.0008,0.0008,0.0004,0.001,0.001,0.001,0.0011,0.0012,0.0007,0.0007,0.0007,0.0007,0,0.0022,0.0017,0.0015,0.0011,0.0012,0.0009,0.0012,0.0013,0.0014,0.0014,0.0015,0.0013,0.0011,0.0012,0.001,0.0011,0.0011,0.001,0.0007,0.0011,0.0012,0.0012,0.0008,0.0007,0.0007,0.0007,0,0,0.0016,0.001,0.0009,0.0006,0.0007,0.0006,0.0008,0.001,0.0011,0.0012,0.0014,0.0012,0.0014,0.0012,0.0013,0.0014,0.0018,0.0013,0.0013,0.0013,0.0021,0.0027,0.0028,0.0019,0.0019,0.0019,0.0021,0,0.0009,-0.0001,-0.0,-0.0007,-0.0011,-0.0004,-0.0003,0.0001,0.0006,0.001,0.0014,0.0014,0.0014,0.0014,0.0016,0.0018,0.0018,0.0017,0.0017,0.0017,0.0022,0.0029,0.007,0.0076,0.0022,0.0022,0.0022,0,0.0,-0.0006,-0.0015,-0.0017,-0.0018,-0.0019,-0.0013,-0.0011,-0.0001,0.0003,0.0009,0.0013,0.0018,0.0016,0.0021,0.002,0.0018,0.002,0.002,0.0023,0.0024,0.0063,0.0079,0.0046,0.0022,0.0022,0.0022,0,-0.0007,-0.0015,-0.0023,-0.0024,-0.0026,-0.0026,-0.0024,-0.0015,-0.0012,0.0,0.0005,0.0013,0.0019,0.0019,0.0025,0.0021,0.0031,0.0026,0.003,0.003,0.0063,0.0066,0.0047,0.0025,0.0025,0.0025,0.0025,0,-0.0016,-0.0023,-0.0029,-0.0034,-0.0041,-0.0035,-0.0038,-0.0031,-0.002,-0.0011,-0.0,0.0015,0.002,0.003,0.0027,0.0035,0.0033,0.003,0.0032,0.0067,0.007,0.0041,-0.0011,0.0025,0.0025,0.0025,0.0025,0,-0.0025,-0.0029,-0.0039,-0.0045,-0.0048,-0.0052,-0.0051,-0.005,-0.0034,-0.0021,-0.0017,0.0016,0.004,0.0043,0.0051,0.0042,0.0024,0.0044,0.0085,0.0091,0.0058,0.0004,-0.0063,-0.006,0.0045,0.0045,0.0045,0,-0.0029,-0.0037,-0.0051,-0.0059,-0.0064,-0.0069,-0.0073,-0.0061,-0.0056,-0.0014,-0.0007,0.0028,0.0076,0.0093,0.0084,0.0083,0.0038,0.0099,0.0095,0.0061,0.0002,-0.0054,-0.005,0.0143,0.0144,0.0145,0.0146,0,-0.004,-0.0046,-0.0056,-0.0074,-0.0083,-0.009,-0.0091,-0.0086,-0.0061,-0.0022,0.0045,0.0096,0.0126,0.017,0.0154,0.0145,0.0065,0.0113,0.0072,0.0069,0.0011,0.0015,0.013,0.0152,0.0152,0.0151,0.0151,0.0151,-0.0046,-0.0056,-0.0071,-0.0086,-0.0096,-0.01,-0.0093,-0.0064,-0.0024,0.0076,0.0105,0.0249,0.0258,0.0262,0.021,0.0144,0.0099,0.0142,0.0078,0.0024,0.0027,0.0151,0.0176,0.0175,0.0175,0.0174,0.0174,0,-0.0054,-0.0065,-0.0082,-0.0096,-0.0103,-0.0106,-0.0094,-0.0052,0.0029,0.0169,0.0281,0.0437,0.0404,0.035,0.0226,0.014,0.01,0.0093,0.0034,0.0041,0.0165,0.0172,0.0204,0.0204,0.0204,0.0204,0.0204,0.0204,-0.0058,-0.0076,-0.0085,-0.0097,-0.0101,-0.009,-0.0073,0.0021,0.0137,0.0379,0.0564,0.07,0.0686,0.0285,0.0089,0.0057,-0.0017,-0.0049,-0.0096,-0.0003,-0.0002,-0.0002,-0.0005,-0.0011,-0.0011,-0.0161,-0.0162,-0.0164]}],[{"header":{"parameterUnit":"m.s-1","parameterCategory":2,"la1":30.2991,"la2":30.254,"lo1":-89.0895,"lo2":-89.0444,"dy":0.0017,"dx":0.0017,"nx":28,"ny":28,"refTime":"2023-09-02T03:00:00:Z","depth":"2","parameterNumber":2,"parameterNumberName":"U-component_of_CURRENTS"},"data":[0,0,0,0,0,0,0,0,0,0,0,0,0,0,0,0,0,0,0,0,0,0,0,0,0,0,0,0,0,0,0,0,0,0,0,0,0,0,0,0,0,0,0,0,0,0,0,0,0,0,0,0,0,0,0,0,0,0,-0.0009,-0.0009,0,0.0004,0.0004,0.0005,0.0016,0.0017,0.0017,0.0017,0.0041,0.0042,0.0043,0,0,0,0,0,0,0,0,0,0,0,0,0,-0.0011,-0.0011,-0.0009,-0.0009,-0.0009,0.0004,0.0004,0.0005,0.0016,0.0017,0.0017,0.0017,0.0041,0.0042,0.0043,0,0,0,0,0,0,0,0,0,0,0,0,0,-0.0005,-0.0011,-0.0009,-0.0002,-0.0001,0.0004,0.0004,0.0005,0.0016,0.0017,0.0017,0.0017,0.0041,0.0042,0.0043,0.0046,0,0,0.0045,0.0046,0,0,0,0,0,0,0,0,-0.0005,-0.0005,-0.0003,-0.0003,-0.0002,0.0008,0.0013,0.0019,0.0016,0.001,0.0017,0.0017,0.0031,0.0033,0.0036,0.0047,0.0048,0.0045,0.0046,0.0046,0.0047,0,0,0,0,0,0,0,-0.0006,-0.0005,-0.0003,-0.0003,-0.0002,0.0005,0.0006,0.0014,0.0021,0.0011,0.0012,0.0012,0.0031,0.0035,0.0036,0.0049,0.0045,0.0046,0.0047,0.0047,0.0066,0.0066,0,0,0,0,0,0,-0.0009,-0.0006,-0.0004,-0.0003,-0.0004,0.0005,0.0006,0.0005,0.002,0.0022,0.0012,0.0013,0.0033,0.0035,0.0037,0.004,0.0046,0.0047,0.0048,0.0066,0.0066,0.0066,0,0,0,0,0,0,-0.001,-0.0009,-0.0004,-0.0004,-0.0003,0.0005,0.0004,0.0006,0.001,0.0021,0.0023,0.0015,0.0033,0.0036,0.0044,0.0042,0.0048,0.0048,0.0066,0.0066,0.0066,0.0048,0,0,0,0,0,0,-0.001,-0.001,-0.0009,-0.0005,-0.0003,-0.0003,0.0004,0.0006,0.001,0.0011,0.0024,0.0026,0.0034,0.0042,0.0044,0.0043,0.0049,0.0066,0.0066,0.0066,0.0048,0.0047,0.0046,0,0,0,0,0,-0.001,-0.0012,-0.001,-0.0009,-0.0004,-0.0003,-0.0002,0.0005,0.001,0.001,0.0019,0.0026,0.0043,0.0043,0.0046,0.0044,0.0066,0.0066,0.0066,0.0049,0.0047,0.0046,0,0,0,0,0,0,-0.0012,-0.0011,-0.0008,-0.001,-0.0007,-0.0002,0.0001,0.0004,0.0012,0.0015,0.0026,0.0028,0.0034,0.0042,0.0041,0.005,0.0056,0.0056,0.0042,0.0041,0.004,0.0041,0.005,0,0,0,0,0,-0.0013,-0.0014,-0.0012,-0.0012,-0.0011,-0.0005,-0.0003,0.0001,0.0007,0.0011,0.0019,0.0029,0.0036,0.0041,0.0048,0.0053,0.0062,0.0054,0.0053,0.0052,0.0055,0.0062,0.0062,0.0066,0.0066,0.0066,0,0,-0.0014,-0.0013,-0.0013,-0.0012,-0.0008,-0.001,-0.0003,-0.0001,-0.0001,0.0012,0.0017,0.0025,0.0036,0.0041,0.0044,0.0047,0.0056,0.0052,0.0051,0.0055,0.0062,0.0062,0.0062,0.0066,0.0066,0.0066,0,0,-0.0016,-0.0015,-0.0016,-0.0016,-0.0014,-0.0011,-0.0012,-0.0007,-0.0004,0.0,0.0009,0.0016,0.0027,0.0034,0.0039,0.0037,0.0049,0.0039,0.0035,0.0042,0.0041,0.0041,0.0052,0.0053,0.0039,0.0039,0.0039,0,-0.0017,-0.0019,-0.0017,-0.0019,-0.0019,-0.0013,-0.0016,-0.0013,-0.0007,-0.0005,-0.0001,0.0014,0.0024,0.003,0.003,0.0034,0.0042,0.0038,0.004,0.004,0.004,0.0051,0.0053,0.0038,0.0038,0.0038,0.0038,0,-0.0021,-0.0023,-0.0024,-0.0025,-0.0026,-0.0027,-0.0026,-0.0025,-0.002,-0.0016,-0.0011,0.0001,0.0011,0.0014,0.0023,0.0029,0.0035,0.0036,0.0042,0.0039,0.0051,0.0053,0.0037,0.0037,0.0037,0.0038,0,0,-0.0021,-0.0026,-0.0026,-0.0029,-0.003,-0.0032,-0.0034,-0.0034,-0.0035,-0.0028,-0.0026,-0.0013,-0.0005,0.0002,0.0012,0.002,0.0029,0.003,0.0031,0.0039,0.0049,0.0086,0.0091,0.003,0.003,0.003,0.0056,0,-0.0023,-0.003,-0.0032,-0.0039,-0.0043,-0.0043,-0.0047,-0.0046,-0.0042,-0.004,-0.0028,-0.0022,-0.0011,-0.0005,0.0004,0.0025,0.0033,0.0023,0.0053,0.0054,0.0086,0.0094,0.012,0.0149,0.0058,0.0059,0.0059,0,-0.0024,-0.0029,-0.0036,-0.0048,-0.005,-0.0053,-0.0058,-0.0061,-0.0057,-0.0054,-0.0046,-0.0036,-0.0019,-0.0012,0.002,0.0013,0.0031,0.0045,0.0046,0.009,0.0095,0.0138,0.0156,0.0062,0.0062,0.0061,0.0061,0,-0.002,-0.0032,-0.0037,-0.004,-0.0052,-0.0056,-0.0061,-0.0062,-0.0066,-0.006,-0.0058,-0.0042,-0.0026,-0.0007,0.0031,0.0024,0.0068,0.0059,0.0107,0.011,0.0144,0.0149,0.0077,0.0077,0.0077,0.0077,0.0077,0,-0.002,-0.0025,-0.0036,-0.0039,-0.0049,-0.0057,-0.0064,-0.0068,-0.0071,-0.0068,-0.0061,-0.0049,-0.0023,0.0007,0.003,0.0085,0.0068,0.0114,0.0122,0.0139,0.0143,0.0076,0.0076,0.0078,0.0078,0.0078,0.0078,0,-0.0013,-0.0019,-0.0028,-0.0042,-0.0046,-0.0052,-0.0067,-0.0073,-0.0075,-0.007,-0.0067,-0.0047,0.0002,0.0031,0.0074,0.0095,0.0132,0.0152,0.0176,0.0187,0.0167,0.0165,0.0204,0.0206,0.0207,0.0208,0.0209,0,-0.001,-0.0013,-0.0026,-0.0032,-0.0037,-0.0048,-0.0057,-0.007,-0.0072,-0.0062,-0.0054,-0.0012,0.0039,0.0115,0.0162,0.0216,0.0184,0.0253,0.0245,0.0177,0.0181,0.0177,0.0173,0.0279,0.0281,0.0282,0.0283,0,-0.0006,-0.0008,-0.0016,-0.0023,-0.0031,-0.004,-0.005,-0.0053,-0.0058,-0.004,0.0002,0.0044,0.0122,0.0213,0.0276,0.0293,0.0247,0.028,0.0205,0.0246,0.0251,0.0254,0.0247,0.0293,0.0292,0.0291,0.0291,0.029,-0.0002,-0.0004,-0.0008,-0.0012,-0.002,-0.0017,-0.0009,-0.0008,0.0013,0.0071,0.0077,0.0186,0.0211,0.0362,0.0352,0.0347,0.0349,0.0344,0.0339,0.0333,0.034,0.0347,0.0409,0.0409,0.0408,0.0408,0.0408,0,0.0009,0.0009,0.0003,0.0005,0.0012,0.0006,0.0009,0.0038,0.0091,0.0174,0.0244,0.0319,0.0402,0.0417,0.0445,0.0431,0.0392,0.0401,0.0366,0.0358,0.0351,0.0356,0.043,0.043,0.0429,0.0429,0,0,0.0015,0.002,0.0021,0.0044,0.0049,0.0081,0.0098,0.0148,0.0219,0.0324,0.0424,0.0505,0.0506,0.0515,0.0477,0.0475,0.041,0.0454,0.0449,0.0408,0.04,0.0343,0.0347,0,0,0,0,0]},{"header":{"parameterUnit":"m.s-1","parameterCategory":2,"la1":30.2991,"la2":30.254,"lo1":-89.0895,"lo2":-89.0444,"dy":0.0017,"dx":0.0017,"nx":28,"ny":28,"refTime":"2023-09-02T03:00:00:Z","depth":"2","parameterNumber":3,"parameterNumberName":"V-component_of_CURRENTS"},"data":[0,0,0,0,0,0,0,0,0,0,0,0,0,0,0,0,0,0,0,0,0,0,0,0,0,0,0,0,0,0,0,0,0,0,0,0,0,0,0,0,0,0,0,0,0,0,0,0,0,0,0,0,0,0,0,0,0,0,-0.0089,-0.0089,0,-0.0102,-0.0102,-0.0102,-0.0113,-0.0113,-0.0113,-0.0113,-0.013,-0.013,-0.0131,0,0,0,0,0,0,0,0,0,0,0,0,0,-0.0073,-0.0074,-0.0089,-0.0089,-0.0089,-0.0102,-0.0102,-0.0102,-0.0113,-0.0113,-0.0113,-0.0113,-0.013,-0.013,-0.0131,0,0,0,0,0,0,0,0,0,0,0,0,0,-0.0083,-0.0074,-0.0089,-0.0095,-0.0096,-0.0102,-0.0102,-0.0102,-0.0113,-0.0113,-0.0113,-0.0113,-0.013,-0.013,-0.0131,-0.0134,0,0,-0.0133,-0.0133,0,0,0,0,0,0,0,0,-0.0083,-0.0084,-0.0094,-0.0095,-0.0095,-0.0105,-0.0103,-0.0113,-0.0113,-0.0107,-0.0113,-0.0113,-0.0121,-0.0123,-0.0126,-0.0135,-0.0136,-0.0133,-0.0133,-0.0134,-0.0134,0,0,0,0,0,0,0,-0.0082,-0.0084,-0.0095,-0.0094,-0.0095,-0.0097,-0.0099,-0.0105,-0.0115,-0.0107,-0.0108,-0.0108,-0.0122,-0.0126,-0.0127,-0.0136,-0.0133,-0.0134,-0.0134,-0.0134,-0.0142,-0.0142,0,0,0,0,0,0,-0.0079,-0.0083,-0.0094,-0.0095,-0.0088,-0.0098,-0.0099,-0.0102,-0.0114,-0.0116,-0.0108,-0.0109,-0.0124,-0.0126,-0.0127,-0.0127,-0.0134,-0.0134,-0.0135,-0.0142,-0.0142,-0.0141,0,0,0,0,0,0,-0.0079,-0.008,-0.0094,-0.0088,-0.009,-0.0098,-0.0101,-0.0103,-0.0106,-0.0115,-0.0117,-0.011,-0.0125,-0.0126,-0.013,-0.0128,-0.0135,-0.0135,-0.0142,-0.0142,-0.0142,-0.0129,0,0,0,0,0,0,-0.0078,-0.008,-0.0082,-0.0088,-0.009,-0.0097,-0.0101,-0.0103,-0.0106,-0.0106,-0.0117,-0.0118,-0.0125,-0.0129,-0.0131,-0.0129,-0.0136,-0.0142,-0.0142,-0.0142,-0.0129,-0.0128,-0.0127,0,0,0,0,0,-0.0078,-0.0081,-0.0082,-0.0084,-0.0093,-0.0097,-0.0098,-0.0104,-0.0106,-0.0107,-0.0112,-0.0118,-0.0128,-0.0129,-0.0131,-0.0129,-0.0143,-0.0142,-0.0142,-0.013,-0.0128,-0.0127,0,0,0,0,0,0,-0.0077,-0.0082,-0.0084,-0.009,-0.0092,-0.0098,-0.0101,-0.0103,-0.0108,-0.0109,-0.0117,-0.0119,-0.0121,-0.0126,-0.0128,-0.013,-0.0136,-0.0136,-0.0126,-0.0125,-0.0123,-0.0125,-0.0136,0,0,0,0,0,-0.0077,-0.0081,-0.0085,-0.0089,-0.009,-0.0095,-0.0097,-0.01,-0.0104,-0.0107,-0.0112,-0.0117,-0.0121,-0.0123,-0.0129,-0.013,-0.0132,-0.013,-0.0129,-0.0128,-0.013,-0.0126,-0.0125,-0.014,-0.014,-0.014,0,0,-0.0079,-0.0082,-0.0085,-0.0089,-0.0092,-0.0094,-0.0097,-0.01,-0.01,-0.0108,-0.0111,-0.0114,-0.0121,-0.0122,-0.0124,-0.0126,-0.0123,-0.0127,-0.0126,-0.0129,-0.0126,-0.0124,-0.0123,-0.014,-0.014,-0.014,0,0,-0.0083,-0.0086,-0.009,-0.009,-0.0093,-0.0094,-0.0094,-0.0098,-0.0099,-0.0101,-0.0105,-0.0105,-0.0114,-0.0115,-0.0117,-0.0112,-0.0117,-0.0114,-0.0108,-0.0105,-0.0103,-0.0102,-0.0099,-0.0098,-0.0112,-0.0112,-0.0112,0,-0.0084,-0.0091,-0.0091,-0.0093,-0.0094,-0.0094,-0.0096,-0.0096,-0.01,-0.0099,-0.0101,-0.0105,-0.011,-0.0108,-0.0107,-0.0109,-0.0109,-0.0113,-0.0103,-0.0102,-0.0101,-0.0098,-0.0097,-0.0112,-0.0112,-0.0112,-0.0112,0,-0.0091,-0.0095,-0.0096,-0.0099,-0.0098,-0.01,-0.0098,-0.0096,-0.0096,-0.0096,-0.0094,-0.0097,-0.0099,-0.0098,-0.0103,-0.0097,-0.0099,-0.0102,-0.0107,-0.0099,-0.0096,-0.0095,-0.0111,-0.0111,-0.0111,-0.0111,0,0,-0.0097,-0.0101,-0.0102,-0.0104,-0.0101,-0.0103,-0.0098,-0.0095,-0.0092,-0.0091,-0.0087,-0.0089,-0.0088,-0.0091,-0.0092,-0.0088,-0.008,-0.0093,-0.0093,-0.0089,-0.0073,-0.0069,-0.0067,-0.0081,-0.008,-0.008,-0.0072,0,-0.0103,-0.011,-0.0108,-0.0112,-0.0115,-0.0108,-0.0104,-0.0099,-0.0094,-0.0088,-0.0083,-0.0082,-0.0086,-0.0086,-0.0082,-0.008,-0.0078,-0.0082,-0.0081,-0.0081,-0.0078,-0.0066,-0.0052,-0.0043,-0.0071,-0.0071,-0.0071,0,-0.0111,-0.0115,-0.0121,-0.012,-0.012,-0.012,-0.0111,-0.0107,-0.0094,-0.0089,-0.0081,-0.0078,-0.0071,-0.0076,-0.0068,-0.0071,-0.0073,-0.0072,-0.0072,-0.0073,-0.0075,-0.0056,-0.004,-0.0069,-0.0069,-0.0069,-0.007,0,-0.0119,-0.0123,-0.0129,-0.0129,-0.0127,-0.0125,-0.0122,-0.011,-0.0104,-0.0089,-0.0081,-0.0072,-0.0064,-0.0065,-0.006,-0.0065,-0.0051,-0.0058,-0.0056,-0.0056,-0.0047,-0.0046,-0.0056,-0.0056,-0.0056,-0.0056,-0.0056,0,-0.0127,-0.0132,-0.0134,-0.0138,-0.0143,-0.0135,-0.0134,-0.0126,-0.011,-0.0098,-0.0085,-0.0066,-0.0061,-0.005,-0.0054,-0.0047,-0.0046,-0.0053,-0.0052,-0.0041,-0.004,-0.0067,-0.0069,-0.0056,-0.0056,-0.0056,-0.0056,0,-0.0137,-0.0138,-0.0146,-0.0148,-0.015,-0.0153,-0.0147,-0.0143,-0.0123,-0.0105,-0.0099,-0.0062,-0.0037,-0.0033,-0.0024,-0.0035,-0.0034,-0.0034,-0.0021,-0.0019,-0.0045,-0.0045,-0.0033,-0.0033,-0.0033,-0.0033,-0.0032,0,-0.0142,-0.0149,-0.0159,-0.0165,-0.0168,-0.0171,-0.0172,-0.0156,-0.0146,-0.0097,-0.0086,-0.0048,-0.0003,0.0015,0.0006,0.0003,-0.0013,-0.0006,-0.0016,-0.0041,-0.0042,-0.0043,-0.0044,0.0003,0.0003,0.0004,0.0004,0,-0.0154,-0.0159,-0.0167,-0.0183,-0.0189,-0.0193,-0.0189,-0.018,-0.0148,-0.0109,-0.0042,0.0005,0.0039,0.0063,0.0048,0.004,-0.0005,0.0,-0.0022,-0.0007,-0.0007,-0.0008,-0.001,0.0007,0.0007,0.0006,0.0006,0.0006,-0.0164,-0.0174,-0.0187,-0.0199,-0.0205,-0.0205,-0.0199,-0.0167,-0.0127,-0.0035,-0.0004,0.0104,0.0089,0.012,0.0066,0.0019,0.0032,0.001,0.0008,0.0007,0.0008,0.0008,0.0025,0.0025,0.0025,0.0025,0.0024,0,-0.0177,-0.0187,-0.0201,-0.0213,-0.0218,-0.0217,-0.0201,-0.0166,-0.0093,0.0026,0.0119,0.0146,0.0165,0.0141,0.0079,0.0023,0.0012,-0.0002,-0.0005,-0.0006,-0.0007,-0.0008,0.0005,0.0004,0.0004,0.0003,0,0,-0.0185,-0.0203,-0.021,-0.0221,-0.0223,-0.0214,-0.0198,-0.0119,-0.0024,0.0116,0.0221,0.0309,0.0256,0.019,0.0108,0.0062,0.004,0.0052,0.0081,0.0088,0.0087,0.0021,0.0022,0,0,0,0,0]}],[{"header":{"parameterUnit":"m.s-1","parameterCategory":2,"la1":30.2991,"la2":30.254,"lo1":-89.0895,"lo2":-89.0444,"dy":0.0017,"dx":0.0017,"nx":28,"ny":28,"refTime":"2023-09-02T03:00:00:Z","depth":"4","parameterNumber":2,"parameterNumberName":"U-component_of_CURRENTS"},"data":[0,0,0,0,0,0,0,0,0,0,0,0,0,0,0,0,0,0,0,0,0,0,0,0,0,0,0,0,0,0,0,0,0,0,0,0,0,0,0,0,0,0,0,0,0,0,0,0,0,0,0,0,0,0,0,0,0,0,-0.0002,-0.0001,0,0.0012,0.0012,0.0013,0.0024,0.0024,0.0024,0.0024,0.0047,0.0048,0.0048,0,0,0,0,0,0,0,0,0,0,0,0,0,-0.0007,-0.0007,-0.0002,-0.0001,-0.0001,0.0012,0.0012,0.0013,0.0024,0.0024,0.0024,0.0024,0.0047,0.0047,0.0048,0,0,0,0,0,0,0,0,0,0,0,0,0,0.0,-0.0007,-0.0002,0.0006,0.0006,0.0012,0.0012,0.0013,0.0024,0.0024,0.0024,0.0024,0.0047,0.0047,0.0048,0.0051,0,0,0.0051,0.0051,0,0,0,0,0,0,0,0,-0.0,0.0,0.0004,0.0005,0.0006,0.0016,0.0019,0.0026,0.0024,0.0018,0.0024,0.0025,0.0037,0.0039,0.0042,0.0052,0.0053,0.0051,0.0051,0.0052,0.0052,0,0,0,0,0,0,0,-0.0001,-0.0,0.0004,0.0005,0.0006,0.0012,0.0013,0.002,0.0027,0.0018,0.0019,0.002,0.0038,0.0041,0.0042,0.0053,0.0051,0.0051,0.0052,0.0052,0.007,0.007,0,0,0,0,0,0,-0.0004,-0.0001,0.0004,0.0005,0.0003,0.0012,0.0013,0.0013,0.0027,0.0029,0.002,0.002,0.0039,0.0041,0.0043,0.0047,0.0052,0.0052,0.0053,0.007,0.007,0.007,0,0,0,0,0,0,-0.0004,-0.0004,0.0003,0.0002,0.0003,0.0012,0.0012,0.0013,0.0018,0.0028,0.003,0.0023,0.004,0.0042,0.0049,0.0048,0.0053,0.0053,0.007,0.007,0.007,0.0054,0,0,0,0,0,0,-0.0005,-0.0004,-0.0004,0.0002,0.0003,0.0005,0.0012,0.0014,0.0018,0.0019,0.0031,0.0033,0.004,0.0048,0.005,0.0049,0.0054,0.007,0.007,0.007,0.0054,0.0053,0.0052,0,0,0,0,0,-0.0005,-0.0006,-0.0004,-0.0003,0.0003,0.0005,0.0007,0.0013,0.0018,0.0019,0.0027,0.0033,0.0049,0.0049,0.0051,0.005,0.007,0.007,0.007,0.0055,0.0054,0.0052,0,0,0,0,0,0,-0.0008,-0.0005,-0.0002,-0.0002,0.0001,0.0007,0.0009,0.0013,0.0021,0.0023,0.0033,0.0036,0.0041,0.0049,0.0047,0.0055,0.0061,0.0061,0.0048,0.0047,0.0046,0.0047,0.0055,0,0,0,0,0,-0.0009,-0.0008,-0.0005,-0.0004,-0.0003,0.0004,0.0006,0.001,0.0016,0.002,0.0027,0.0036,0.0043,0.0047,0.0054,0.0059,0.0068,0.006,0.0059,0.0058,0.0061,0.0068,0.0068,0.007,0.007,0.007,0,0,-0.001,-0.0007,-0.0007,-0.0005,-0.0,-0.0001,0.0006,0.0009,0.0009,0.0021,0.0026,0.0033,0.0043,0.0047,0.0051,0.0054,0.0063,0.0058,0.0057,0.006,0.0068,0.0068,0.0068,0.007,0.007,0.007,0,0,-0.0012,-0.0009,-0.001,-0.0009,-0.0005,-0.0002,-0.0002,0.0003,0.0007,0.001,0.0019,0.0026,0.0036,0.0042,0.0047,0.0045,0.0056,0.0047,0.0044,0.0051,0.005,0.005,0.0062,0.0063,0.0047,0.0047,0.0047,0,-0.0013,-0.0014,-0.001,-0.0011,-0.0011,-0.0004,-0.0006,-0.0003,0.0004,0.0006,0.001,0.0024,0.0033,0.0038,0.0039,0.0042,0.0051,0.0046,0.0049,0.0049,0.0049,0.0061,0.0063,0.0047,0.0047,0.0047,0.0047,0,-0.0016,-0.0017,-0.0018,-0.0017,-0.0017,-0.0018,-0.0015,-0.0014,-0.0009,-0.0005,0.0,0.0012,0.0021,0.0023,0.0032,0.0038,0.0045,0.0045,0.0051,0.0048,0.0061,0.0063,0.0046,0.0046,0.0046,0.0046,0,0,-0.0017,-0.002,-0.0019,-0.0022,-0.0021,-0.0022,-0.0023,-0.0023,-0.0023,-0.0016,-0.0014,-0.0002,0.0006,0.0012,0.0022,0.003,0.0041,0.004,0.0041,0.005,0.0061,0.0093,0.0099,0.0041,0.0042,0.0042,0.007,0,-0.002,-0.0025,-0.0026,-0.0031,-0.0034,-0.0033,-0.0036,-0.0035,-0.0031,-0.0028,-0.0017,-0.0011,0.0,0.0005,0.0015,0.0036,0.0045,0.0034,0.0064,0.0065,0.0093,0.0102,0.0042,0.0071,0.0071,0.0072,0.0072,0,-0.0021,-0.0025,-0.0031,-0.004,-0.0042,-0.0045,-0.0048,-0.0051,-0.0046,-0.0043,-0.0035,-0.0025,-0.0008,-0.0001,0.0031,0.0024,0.0043,0.0057,0.0058,0.0096,0.0101,0.0075,0.0075,0.0075,0.0075,0.0075,0.0074,0,-0.0019,-0.0028,-0.0033,-0.0035,-0.0045,-0.0048,-0.0052,-0.0053,-0.0057,-0.005,-0.0049,-0.0032,-0.0016,0.0004,0.0043,0.0035,0.0081,0.0072,0.0116,0.0119,0.0087,0.0087,0.009,0.009,0.009,0.009,0.009,0,-0.002,-0.0024,-0.0033,-0.0035,-0.0045,-0.0051,-0.0059,-0.0061,-0.0064,-0.0063,-0.0054,-0.0042,-0.0013,0.0017,0.0042,0.0096,0.0081,0.0122,0.013,0.008,0.0079,0.0088,0.0088,0.0091,0.0091,0.0091,0.0091,0,-0.0015,-0.0019,-0.0027,-0.0039,-0.0043,-0.0048,-0.0064,-0.0071,-0.0073,-0.0069,-0.0067,-0.0044,0.0007,0.004,0.0085,0.0104,0.0142,0.0161,0.0115,0.0119,0.0172,0.017,0.0208,0.0209,0.0211,0.0212,0.0212,0,-0.0013,-0.0015,-0.0026,-0.0032,-0.0036,-0.0048,-0.0058,-0.007,-0.0075,-0.0064,-0.0059,-0.0014,0.0012,0.0105,0.0132,0.0187,0.0192,0.0201,0.0179,0.0182,0.0185,0.0182,0.0178,0.0214,0.0215,0.0215,0.0215,0,-0.0011,-0.0012,-0.0018,-0.0025,-0.0034,-0.0046,-0.0058,-0.0064,-0.007,-0.0076,-0.003,0.0014,0.0077,0.0133,0.0184,0.0216,0.0188,0.0214,0.0211,0.019,0.019,0.0191,0.0187,0.022,0.0219,0.0219,0.0218,0,-0.0008,-0.001,-0.0013,-0.0017,-0.0027,-0.003,-0.0044,-0.0039,-0.0041,-0.0031,-0.001,0.0048,0.0078,0.0149,0.019,0.0235,0.0236,0.0228,0.0224,0.022,0.0215,0.0216,0.0267,0,0,0,0,0,-0.0003,0.0,-0.0006,-0.0007,-0.0015,-0.0011,-0.0036,-0.0051,-0.0059,-0.0018,-0.0012,0.0051,0.0132,0.016,0.0215,0.02,0.0231,0.0261,0.0218,0.0243,0.0238,0.0233,0,0,0,0,0,0,0.0001,0.0,0.0001,0.001,0.0017,0.0012,0.0003,-0.0008,0.0013,0.0011,0.006,0.0069,0.0149,0.0123,0.0225,0.0235,0.0211,0.0294,0.0295,0.0245,0.0241,0.0237,0.023,0,0,0,0,0]},{"header":{"parameterUnit":"m.s-1","parameterCategory":2,"la1":30.2991,"la2":30.254,"lo1":-89.0895,"lo2":-89.0444,"dy":0.0017,"dx":0.0017,"nx":28,"ny":28,"refTime":"2023-09-02T03:00:00:Z","depth":"4","parameterNumber":3,"parameterNumberName":"V-component_of_CURRENTS"},"data":[0,0,0,0,0,0,0,0,0,0,0,0,0,0,0,0,0,0,0,0,0,0,0,0,0,0,0,0,0,0,0,0,0,0,0,0,0,0,0,0,0,0,0,0,0,0,0,0,0,0,0,0,0,0,0,0,0,0,-0.0109,-0.0109,0,-0.0124,-0.0124,-0.0124,-0.0135,-0.0135,-0.0135,-0.0136,-0.0158,-0.0158,-0.0159,0,0,0,0,0,0,0,0,0,0,0,0,0,-0.0092,-0.0092,-0.0109,-0.0109,-0.0109,-0.0124,-0.0124,-0.0124,-0.0135,-0.0135,-0.0135,-0.0136,-0.0158,-0.0158,-0.0159,0,0,0,0,0,0,0,0,0,0,0,0,0,-0.0103,-0.0092,-0.0109,-0.0116,-0.0116,-0.0124,-0.0124,-0.0124,-0.0135,-0.0135,-0.0135,-0.0136,-0.0157,-0.0158,-0.0159,-0.0164,0,0,-0.0162,-0.0162,0,0,0,0,0,0,0,0,-0.0102,-0.0103,-0.0115,-0.0115,-0.0116,-0.0127,-0.0126,-0.0138,-0.0135,-0.0129,-0.0136,-0.0136,-0.0148,-0.0149,-0.0153,-0.0165,-0.0166,-0.0162,-0.0162,-0.0163,-0.0163,0,0,0,0,0,0,0,-0.0101,-0.0103,-0.0115,-0.0115,-0.0116,-0.0119,-0.012,-0.0128,-0.0139,-0.013,-0.013,-0.0131,-0.0148,-0.0152,-0.0154,-0.0166,-0.0162,-0.0163,-0.0163,-0.0163,-0.0174,-0.0174,0,0,0,0,0,0,-0.0098,-0.0102,-0.0115,-0.0116,-0.0108,-0.0119,-0.0121,-0.0124,-0.0138,-0.014,-0.0131,-0.0131,-0.0151,-0.0153,-0.0155,-0.0154,-0.0163,-0.0163,-0.0164,-0.0174,-0.0174,-0.0174,0,0,0,0,0,0,-0.0097,-0.0099,-0.0114,-0.0108,-0.0111,-0.0119,-0.0123,-0.0124,-0.0129,-0.0139,-0.0141,-0.0133,-0.0151,-0.0153,-0.0159,-0.0155,-0.0164,-0.0165,-0.0175,-0.0174,-0.0174,-0.0156,0,0,0,0,0,0,-0.0097,-0.0099,-0.0102,-0.0108,-0.0111,-0.0118,-0.0123,-0.0125,-0.0128,-0.0129,-0.0142,-0.0144,-0.0151,-0.0157,-0.0159,-0.0156,-0.0165,-0.0175,-0.0174,-0.0174,-0.0157,-0.0156,-0.0154,0,0,0,0,0,-0.0096,-0.01,-0.0102,-0.0103,-0.0114,-0.0118,-0.0119,-0.0126,-0.0128,-0.013,-0.0136,-0.0144,-0.0156,-0.0158,-0.016,-0.0157,-0.0175,-0.0175,-0.0174,-0.0158,-0.0156,-0.0154,0,0,0,0,0,0,-0.0096,-0.0101,-0.0104,-0.0109,-0.0112,-0.0119,-0.0123,-0.0125,-0.0132,-0.0133,-0.0142,-0.0145,-0.0148,-0.0155,-0.0156,-0.0159,-0.0166,-0.0166,-0.0153,-0.0151,-0.015,-0.0149,-0.0166,0,0,0,0,0,-0.0096,-0.01,-0.0104,-0.0109,-0.011,-0.0116,-0.0119,-0.0122,-0.0127,-0.0131,-0.0137,-0.0144,-0.0148,-0.0151,-0.0158,-0.016,-0.0161,-0.0159,-0.0157,-0.0156,-0.0157,-0.0152,-0.015,-0.0172,-0.0172,-0.0172,0,0,-0.0098,-0.0101,-0.0104,-0.0109,-0.0113,-0.0114,-0.0118,-0.0122,-0.0122,-0.0132,-0.0135,-0.014,-0.0148,-0.0149,-0.0151,-0.0154,-0.0149,-0.0155,-0.0154,-0.0156,-0.0151,-0.0149,-0.0147,-0.0172,-0.0172,-0.0172,0,0,-0.0101,-0.0105,-0.0109,-0.0109,-0.0113,-0.0114,-0.0114,-0.0119,-0.012,-0.0123,-0.0128,-0.0128,-0.0139,-0.0139,-0.0142,-0.0135,-0.0142,-0.0138,-0.0129,-0.0124,-0.0122,-0.0121,-0.0116,-0.0114,-0.0136,-0.0136,-0.0136,0,-0.0103,-0.0108,-0.011,-0.0111,-0.0112,-0.0113,-0.0114,-0.0114,-0.0119,-0.0118,-0.0122,-0.0127,-0.0133,-0.0129,-0.0127,-0.0131,-0.0131,-0.0136,-0.0122,-0.012,-0.0119,-0.0114,-0.0112,-0.0135,-0.0136,-0.0136,-0.0136,0,-0.0107,-0.0111,-0.0112,-0.0113,-0.0113,-0.0115,-0.0112,-0.011,-0.0111,-0.0111,-0.0109,-0.0113,-0.0116,-0.0115,-0.0121,-0.0113,-0.0116,-0.012,-0.0126,-0.0115,-0.0111,-0.011,-0.0134,-0.0134,-0.0135,-0.0135,0,0,-0.0114,-0.0115,-0.0116,-0.0117,-0.0114,-0.0115,-0.0109,-0.0105,-0.01,-0.0101,-0.0094,-0.0097,-0.0099,-0.0101,-0.0104,-0.0099,-0.0087,-0.0106,-0.0106,-0.01,-0.0075,-0.0074,-0.0072,-0.0089,-0.0089,-0.0088,-0.0075,0,-0.0119,-0.0122,-0.012,-0.0121,-0.0123,-0.0116,-0.011,-0.0104,-0.0099,-0.0092,-0.0088,-0.0086,-0.0093,-0.0094,-0.0088,-0.0088,-0.0083,-0.009,-0.0088,-0.0088,-0.0087,-0.007,-0.0087,-0.0074,-0.0073,-0.0073,-0.0073,0,-0.0124,-0.0127,-0.013,-0.0126,-0.0126,-0.0124,-0.0114,-0.0109,-0.0093,-0.0088,-0.008,-0.0078,-0.0068,-0.0077,-0.0067,-0.0072,-0.0075,-0.0074,-0.0073,-0.0078,-0.0083,-0.0088,-0.007,-0.007,-0.007,-0.0071,-0.0071,0,-0.0133,-0.0133,-0.0137,-0.0136,-0.0131,-0.0129,-0.0125,-0.0111,-0.0103,-0.0086,-0.0077,-0.0066,-0.0057,-0.0058,-0.0055,-0.0063,-0.0043,-0.0052,-0.0052,-0.0052,-0.0066,-0.0068,-0.0048,-0.0048,-0.0048,-0.0048,-0.0048,0,-0.0139,-0.0142,-0.0143,-0.0146,-0.0149,-0.0139,-0.0136,-0.0126,-0.0107,-0.0092,-0.0079,-0.0058,-0.0053,-0.004,-0.0046,-0.0039,-0.0036,-0.0047,-0.0047,-0.0059,-0.006,-0.0065,-0.0067,-0.0047,-0.0047,-0.0047,-0.0047,0,-0.0149,-0.0148,-0.0155,-0.0154,-0.0155,-0.0158,-0.0148,-0.0142,-0.012,-0.0097,-0.009,-0.005,-0.0024,-0.0021,-0.0011,-0.0023,-0.0022,-0.0023,-0.003,-0.0031,-0.0038,-0.004,-0.0022,-0.0021,-0.0021,-0.0021,-0.0021,0,-0.0154,-0.0159,-0.0167,-0.0173,-0.0176,-0.0177,-0.0176,-0.0156,-0.0142,-0.0087,-0.0073,-0.0033,-0.001,0.0019,0.0013,0.0006,-0.0002,-0.001,-0.003,-0.0033,-0.0035,-0.0036,-0.0038,-0.0021,-0.0021,-0.0021,-0.0021,0,-0.0166,-0.0171,-0.0177,-0.0192,-0.0197,-0.0197,-0.0189,-0.0177,-0.0139,-0.0118,-0.0043,-0.0015,0.0021,0.0038,0.0034,0.0024,-0.001,-0.0009,-0.001,-0.0029,-0.0032,-0.0034,-0.0036,-0.002,-0.002,-0.002,-0.002,0,-0.0177,-0.0186,-0.0198,-0.0208,-0.0213,-0.0209,-0.0204,-0.0169,-0.0145,-0.0076,-0.0047,0.0005,0.004,0.0048,0.0044,0.0037,0.0026,0.0005,0.0003,0.0002,-0.0,-0.0002,0.0025,0,0,0,0,0,-0.0188,-0.02,-0.0213,-0.0221,-0.0223,-0.0224,-0.0207,-0.0194,-0.0152,-0.0097,-0.0067,-0.0025,0.0009,0.0033,0.0027,0.0017,-0.0002,0.0005,-0.0034,-0.0017,-0.0017,-0.0025,0,0,0,0,0,0,-0.0196,-0.0211,-0.0217,-0.0226,-0.023,-0.023,-0.0217,-0.0191,-0.0152,-0.0102,-0.0073,-0.0042,-0.0007,0.0017,0.0027,0.0025,-0.0006,0.0028,0.0027,-0.0016,-0.0017,-0.0017,-0.0025,0,0,0,0,0]}]]